Location: Camerons Lookout
(40.9833°S, 175.9333°E)
Time: 22:47:30
(UTC+00:00)

CZ-4B DEB - Pass Details

Date: 14 January 2026
Orbit: 833 x 855 km, 98.9° (Epoch: 16 February)

Event Time Altitude Azimuth Distance (km) Brightness Sun altitude
Rises 08:59:18 0° 163° (SSE) 3,434 7.7 -11.5°
Reaches altitude 10° 09:01:42 10° 160° (SSE) 2,495 6.9 -11.9°
Maximum altitude 09:07:13 64° 78° (ENE) 943 4.2 -12.6°
Drops below altitude 10° 09:12:40 10° 356° (N) 2,478 6.3 -13.4°
Enters shadow 09:14:10 - 354° (N) 3,059 6.7 -13.6°
